Bob Hope Airport Burbank US
ICAO: KBUR
IATA: BUR
Category: Medium
Scheduled Services: Yes

Elevation: 778 ft
TransAlt. 18000 ft.

Airport Communications:
SOCAL APP/DEP:120.4
ATIS:134.5
CLNC DEL:118
GND:123.9
HAWTHORNE RDO:122.35
TWR:118.7
UNICOM:122.95

KBUR Zoom In..

If you have problems with the map follow the link
https://www.worldairports.se/pages/airport.php?
ICAO=KBUR

Runways:

(A) RW 08 length 5802 ft width 150 ft
ILS 109.50 / hdg 76

(B) RW 15 length 6885 ft width 150 ft
---- / hdg 152

(C) RW 26 length 5802 ft width 150 ft
---- / hdg 256

(D) RW 33 length 6885 ft width 150 ft
---- / hdg 332

Location; KBUR
Day. 14 / Time. 20.53 Zulu
* Altimeter: 30.13
* Temperature: 18° c. 64.4°f.
* Wind from: 270° Speed 06 kn.
Dewpoint: -03° c.
Visibility: 10 Statute Miles.
Clouds: Clear (automated report).

KBUR 142053Z 27006KT 10SM CLR 18/M03 A3013 RMK AO2 SLP195 T01831033 56024


Wind From 270°
Speed 06 kn.

 
 
jpsmedia.com for Web Design worldairports.se 2018   terms of use